Location: Unnamed
(48.8836°N, 1.0859°W)
Time: 14:45:13
(UTC+02:00)

ISS - Pass Details

Date: 05 October 2021
Orbit: 417 x 423 km, 51.6° (Epoch: 16 October)

Event Time Altitude Azimuth Distance (km) Brightness Sun altitude
Rises 20:18:14 0° 289° (WNW) 2,365 1.7 -8.0°
Reaches altitude 10° 20:20:27 10° 279° (W) 1,499 0.7 -8.4°
Maximum altitude 20:23:30 33° 214° (SW) 733 -2.2 -8.9°
Drops below altitude 10° 20:26:33 10° 149° (SSE) 1,494 -1.3 -9.4°
Enters shadow 20:27:45 - 143° (SE) 1,957 -0.7 -9.6°
